{"data":{"norad_id":69236,"intl_designator":"2026-116B","name":"CZ-7A R/B","alt_names":[],"object_type":"ROCKET_BODY","status":"UNKNOWN","operator":null,"country":"PRC","launch_date":"2026-05-26","launch_site_code":"WSC","launch_vehicle":null,"mission":null,"orbit_class":"UNKNOWN","rcs_meters":null,"size_class":null,"mass_kg":null,"dimensions":null,"purposes":[],"wikipedia_slug":null,"has_3d_model":false,"image_url":null,"decayed_at":null,"tle_current":{"epoch":"2026-06-24T04:39:11.857536Z","epoch_age_seconds":7656615,"freshness":"OLD","line1":"1 69236U 26116B   26175.19388724  .00171319 -42151-6  26117-3 0  9997","line2":"2 69236  19.5720 137.0581 7180659 200.8776 100.0771  2.47956709   716","mean_motion":2.47956709,"eccentricity":0.7180659,"inclination_deg":19.572,"raan_deg":137.0581,"arg_perigee_deg":200.8776,"mean_anomaly_deg":100.0771,"bstar":0.00026117,"rev_number":71,"period_min":580.74653668677,"perigee_km":122.64405540475,"apogee_km":33236.688786086,"semimajor_km":23057.803420745,"source":"CELESTRAK","updated_at":"2026-06-25T09:00:25.309693Z"}}}